Location: Eboldshausen
(51.7766°N, 10.0050°E)
Time: 06:25:27
(UTC+00:00)

Cosmos 2082 Rocket - Pass Details

Date: 15 November 2025
Orbit: 834 x 851 km, 71.0° (Epoch: 10 December)

Event Time Altitude Azimuth Distance (km) Brightness Sun altitude
Rises 18:15:21 0° 326° (NNW) 3,394 5.8 -25.4°
Reaches altitude 10° 18:17:51 10° 322° (NW) 2,455 5.1 -25.8°
Maximum altitude 18:23:16 51° 248° (WSW) 1,045 2.9 -26.7°
Enters shadow 18:27:25 17° 178° (S) 1,996 4.1 -27.3°
